BAW34Y EGCC-EGPH

Flight info

Callsign BAW34Y
Flight time 0h 38m
Altitude 24000
Route POL4S POL N601 INPIP INPIP1E
Aircraft A320/M-SDE3FGHIRWY/LB1

Departure

Time 2026-04-21 11:50
Airport Manchester Airport (EGCC)

Arrival

Time 2026-04-21 12:29
Airport Edinburgh Airport (EGPH)
Time Latitude Longitude Altitude Speed Heading
2026-04-21 11:29 53.35931 -2.27517 245 ft 0 kts 95°
2026-04-21 11:40 53.35933 -2.27551 246 ft 4 kts 95°
2026-04-21 11:40 53.35935 -2.27596 246 ft 4 kts 97°
2026-04-21 11:41 53.35941 -2.27632 247 ft 4 kts 155°
2026-04-21 11:41 53.35958 -2.27634 247 ft 4 kts 186°
2026-04-21 11:41 53.35970 -2.27631 247 ft 0 kts 186°
2026-04-21 11:45 53.35964 -2.27632 247 ft 2 kts 186°
2026-04-21 11:45 53.35942 -2.27637 247 ft 4 kts 186°
2026-04-21 11:45 53.35903 -2.27643 247 ft 7 kts 185°
2026-04-21 11:46 53.35848 -2.27652 247 ft 9 kts 185°
2026-04-21 11:46 53.35774 -2.27664 248 ft 12 kts 185°
2026-04-21 11:46 53.35703 -2.27738 249 ft 13 kts 231°
2026-04-21 11:46 53.35643 -2.27863 250 ft 14 kts 231°
2026-04-21 11:47 53.35577 -2.27999 252 ft 16 kts 231°
2026-04-21 11:47 53.35492 -2.28126 253 ft 17 kts 211°
2026-04-21 11:47 53.35367 -2.28170 254 ft 20 kts 192°
2026-04-21 11:47 53.35241 -2.28287 255 ft 22 kts 221°
2026-04-21 11:48 53.35165 -2.28438 257 ft 16 kts 232°
2026-04-21 11:48 53.35094 -2.28585 258 ft 17 kts 231°
2026-04-21 11:48 53.35044 -2.28689 260 ft 18 kts 227°
2026-04-21 11:48 53.34956 -2.28843 262 ft 19 kts 226°
2026-04-21 11:49 53.34861 -2.29008 264 ft 20 kts 227°
2026-04-21 11:49 53.34729 -2.29057 266 ft 21 kts 159°
2026-04-21 11:49 53.34664 -2.28977 266 ft 7 kts 120°
2026-04-21 11:49 53.34682 -2.28926 266 ft 1 kts 50°
2026-04-21 11:50 53.34697 -2.28896 266 ft 20 kts 51°
2026-04-21 11:50 53.34951 -2.28373 260 ft 92 kts 51°
2026-04-21 11:50 53.35471 -2.27297 307 ft 137 kts 54°
2026-04-21 11:50 53.36068 -2.26059 937 ft 137 kts 54°
2026-04-21 11:51 53.36674 -2.24796 1564 ft 146 kts 53°
2026-04-21 11:51 53.37344 -2.23363 1967 ft 167 kts 56°
2026-04-21 11:51 53.38104 -2.21705 2394 ft 192 kts 56°
2026-04-21 11:51 53.38968 -2.19820 2883 ft 216 kts 56°
2026-04-21 11:52 53.39925 -2.17749 3613 ft 230 kts 55°
2026-04-21 11:52 53.40920 -2.15608 4607 ft 235 kts 56°
2026-04-21 11:52 53.41934 -2.13422 5609 ft 240 kts 56°
2026-04-21 11:52 53.42984 -2.11194 6527 ft 248 kts 52°
2026-04-21 11:53 53.44480 -2.09600 7345 ft 271 kts 20°
2026-04-21 11:53 53.46415 -2.09455 8213 ft 284 kts
2026-04-21 11:53 53.48396 -2.09661 9124 ft 287 kts
2026-04-21 11:53 53.50401 -2.09793 10017 ft 290 kts
2026-04-21 11:54 53.52445 -2.09807 10689 ft 302 kts
2026-04-21 11:54 53.54625 -2.09784 10998 ft 324 kts
2026-04-21 11:54 53.56913 -2.09788 11618 ft 332 kts
2026-04-21 11:54 53.59269 -2.09833 12379 ft 337 kts
2026-04-21 11:55 53.61596 -2.09901 13145 ft 340 kts
2026-04-21 11:55 53.63971 -2.09983 13928 ft 344 kts
2026-04-21 11:55 53.66381 -2.10067 14643 ft 348 kts
2026-04-21 11:55 53.68814 -2.10147 15316 ft 352 kts
2026-04-21 11:56 53.71308 -2.10227 15962 ft 356 kts
2026-04-21 11:56 53.73797 -2.10514 16600 ft 364 kts 355°
2026-04-21 11:56 53.76275 -2.11604 17253 ft 372 kts 343°
2026-04-21 11:56 53.78688 -2.13249 17967 ft 375 kts 340°
2026-04-21 11:57 53.81117 -2.14918 18608 ft 379 kts 340°
2026-04-21 11:57 53.83581 -2.16599 19163 ft 384 kts 341°
2026-04-21 11:57 53.86076 -2.18296 19716 ft 388 kts 342°
2026-04-21 11:57 53.88589 -2.20008 20358 ft 391 kts 340°
2026-04-21 11:58 53.91116 -2.21733 21005 ft 394 kts 341°
2026-04-21 11:58 53.93672 -2.23479 21548 ft 399 kts 341°
2026-04-21 11:58 53.96258 -2.25250 22096 ft 402 kts 339°
2026-04-21 11:58 53.98858 -2.27039 22702 ft 405 kts 340°
2026-04-21 11:59 54.01474 -2.28844 23329 ft 407 kts 340°
2026-04-21 11:59 54.04106 -2.30665 23883 ft 411 kts 341°
2026-04-21 11:59 54.06777 -2.32519 24303 ft 415 kts 341°
2026-04-21 11:59 54.09447 -2.34373 24408 ft 411 kts 339°
2026-04-21 12:00 54.12044 -2.36185 24444 ft 396 kts 341°
2026-04-21 12:00 54.14569 -2.37947 24454 ft 393 kts 339°
2026-04-21 12:00 54.17102 -2.39708 24455 ft 393 kts 340°
2026-04-21 12:00 54.19628 -2.41460 24457 ft 392 kts 339°
2026-04-21 12:01 54.22144 -2.43197 24452 ft 390 kts 341°
2026-04-21 12:01 54.24662 -2.44936 24461 ft 391 kts 342°
2026-04-21 12:01 54.27189 -2.46696 24459 ft 392 kts 341°
2026-04-21 12:01 54.29707 -2.48458 24461 ft 391 kts 342°
2026-04-21 12:02 54.32219 -2.50222 24463 ft 389 kts 340°
2026-04-21 12:02 54.37270 -2.53771 24470 ft 393 kts 341°
2026-04-21 12:02 54.39805 -2.55549 24481 ft 393 kts 340°
2026-04-21 12:03 54.42320 -2.57315 24473 ft 390 kts 341°
2026-04-21 12:03 54.44835 -2.59082 24470 ft 390 kts 341°
2026-04-21 12:03 54.47358 -2.60854 24468 ft 393 kts 340°
2026-04-21 12:03 54.49875 -2.62626 24468 ft 390 kts 341°
2026-04-21 12:04 54.52385 -2.64399 24472 ft 389 kts 341°
2026-04-21 12:04 54.54884 -2.66168 24475 ft 389 kts 341°
2026-04-21 12:04 54.57395 -2.67952 24480 ft 390 kts 341°
2026-04-21 12:04 54.59904 -2.69742 24474 ft 391 kts 339°
2026-04-21 12:05 54.62418 -2.71539 24488 ft 391 kts 339°
2026-04-21 12:05 54.64930 -2.73335 24483 ft 391 kts 341°
2026-04-21 12:05 54.67448 -2.75130 24477 ft 392 kts 341°
2026-04-21 12:05 54.69972 -2.76928 24480 ft 392 kts 341°
2026-04-21 12:06 54.72489 -2.78724 24478 ft 392 kts 340°
2026-04-21 12:06 54.75010 -2.80526 24488 ft 392 kts 340°
2026-04-21 12:06 54.77530 -2.82329 24490 ft 392 kts 341°
2026-04-21 12:06 54.80046 -2.84129 24500 ft 391 kts 341°
2026-04-21 12:07 54.82562 -2.85931 24509 ft 391 kts 340°
2026-04-21 12:07 54.85075 -2.87738 24507 ft 388 kts 340°
2026-04-21 12:07 54.87527 -2.89514 24356 ft 378 kts 340°
2026-04-21 12:07 54.89932 -2.91260 24024 ft 373 kts 341°
2026-04-21 12:08 54.92317 -2.92987 23589 ft 370 kts 340°
2026-04-21 12:08 54.94685 -2.94698 23150 ft 368 kts 340°
2026-04-21 12:08 54.97044 -2.96404 22709 ft 365 kts 341°
2026-04-21 12:08 54.99364 -2.98086 22489 ft 357 kts 341°
2026-04-21 12:09 55.01625 -2.99729 22350 ft 346 kts 341°
2026-04-21 12:09 55.03815 -3.01327 22224 ft 337 kts 341°
2026-04-21 12:09 55.05995 -3.02915 21549 ft 345 kts 341°
2026-04-21 12:09 55.08227 -3.04535 20997 ft 349 kts 341°
2026-04-21 12:10 55.10470 -3.06163 20586 ft 348 kts 341°
2026-04-21 12:10 55.12704 -3.07791 20424 ft 349 kts 341°
2026-04-21 12:10 55.14942 -3.09428 20481 ft 350 kts 341°
2026-04-21 12:10 55.17185 -3.11074 20319 ft 348 kts 341°
2026-04-21 12:11 55.19406 -3.12705 19829 ft 346 kts 341°
2026-04-21 12:11 55.21618 -3.14333 19308 ft 343 kts 341°
2026-04-21 12:11 55.23806 -3.15948 18655 ft 339 kts 341°
2026-04-21 12:11 55.25970 -3.17543 17936 ft 335 kts 341°
2026-04-21 12:12 55.28119 -3.19084 17255 ft 331 kts 345°
2026-04-21 12:12 55.30325 -3.19975 16615 ft 322 kts 358°
2026-04-21 12:12 55.32529 -3.20026 15966 ft 313 kts 10°
2026-04-21 12:12 55.34693 -3.19678 15294 ft 312 kts 10°
2026-04-21 12:13 55.36850 -3.19342 14824 ft 310 kts
2026-04-21 12:13 55.38991 -3.19014 14372 ft 308 kts
2026-04-21 12:13 55.41114 -3.18685 13836 ft 303 kts
2026-04-21 12:13 55.43192 -3.18361 13204 ft 300 kts 10°
2026-04-21 12:14 55.45266 -3.18032 12493 ft 299 kts 10°
2026-04-21 12:14 55.47340 -3.17704 11946 ft 299 kts 10°
2026-04-21 12:14 55.49406 -3.17379 11492 ft 296 kts
2026-04-21 12:14 55.51453 -3.17059 11068 ft 294 kts
2026-04-21 12:15 55.53486 -3.16744 10658 ft 292 kts
2026-04-21 12:15 55.55502 -3.16431 10234 ft 290 kts
2026-04-21 12:15 55.57510 -3.16115 9779 ft 289 kts
2026-04-21 12:15 55.59501 -3.15800 9283 ft 286 kts
2026-04-21 12:16 55.61480 -3.15487 8828 ft 284 kts
2026-04-21 12:16 55.63441 -3.15176 8410 ft 280 kts
2026-04-21 12:16 55.65316 -3.14893 8231 ft 264 kts
2026-04-21 12:16 55.67127 -3.15272 7805 ft 265 kts 343°
2026-04-21 12:17 55.68725 -3.16991 6976 ft 279 kts 313°
2026-04-21 12:17 55.69714 -3.19860 6615 ft 271 kts 288°
2026-04-21 12:17 55.69931 -3.23173 6317 ft 267 kts 261°
2026-04-21 12:17 55.69481 -3.26287 6058 ft 263 kts 250°
2026-04-21 12:18 55.68921 -3.29389 5988 ft 265 kts 250°
2026-04-21 12:18 55.68353 -3.32500 5997 ft 266 kts 250°
2026-04-21 12:18 55.68056 -3.35740 5927 ft 261 kts 273°
2026-04-21 12:18 55.68496 -3.38791 5733 ft 254 kts 298°
2026-04-21 12:19 55.69545 -3.41217 5579 ft 244 kts 316°
2026-04-21 12:19 55.70688 -3.43367 5441 ft 235 kts 316°
2026-04-21 12:19 55.71792 -3.45466 5226 ft 231 kts 315°
2026-04-21 12:19 55.72881 -3.47543 4976 ft 229 kts 316°
2026-04-21 12:20 55.73961 -3.49604 4709 ft 227 kts 317°
2026-04-21 12:20 55.75018 -3.51620 4401 ft 226 kts 317°
2026-04-21 12:20 55.76087 -3.53663 4119 ft 225 kts 316°
2026-04-21 12:20 55.76889 -3.56100 3999 ft 236 kts 291°
2026-04-21 12:21 55.77330 -3.58953 4001 ft 236 kts 283°
2026-04-21 12:21 55.77607 -3.61810 3999 ft 234 kts 280°
2026-04-21 12:21 55.77826 -3.64671 3999 ft 234 kts 275°
2026-04-21 12:21 55.78000 -3.67529 3991 ft 232 kts 291°
2026-04-21 12:22 55.78799 -3.69920 4001 ft 223 kts 321°
2026-04-21 12:22 55.80063 -3.71359 4000 ft 212 kts 348°
2026-04-21 12:22 55.81484 -3.71698 4001 ft 203 kts 13°
2026-04-21 12:22 55.82807 -3.71040 4004 ft 195 kts 33°
2026-04-21 12:23 55.83852 -3.69649 4003 ft 183 kts 52°
2026-04-21 12:23 55.84561 -3.67824 3979 ft 178 kts 62°
2026-04-21 12:23 55.85202 -3.65953 3753 ft 175 kts 61°
2026-04-21 12:23 55.85828 -3.64128 3527 ft 169 kts 62°
2026-04-21 12:24 55.86417 -3.62413 3292 ft 156 kts 61°
2026-04-21 12:24 55.86961 -3.60827 3087 ft 145 kts 62°
2026-04-21 12:24 55.87466 -3.59354 2894 ft 133 kts 62°
2026-04-21 12:24 55.87832 -3.58284 2770 ft 129 kts 62°
2026-04-21 12:25 55.88074 -3.57567 2694 ft 126 kts 61°
2026-04-21 12:25 55.88373 -3.56695 2567 ft 123 kts 62°
2026-04-21 12:25 55.88973 -3.54942 2329 ft 122 kts 62°
2026-04-21 12:26 55.89265 -3.54090 2207 ft 124 kts 62°
2026-04-21 12:26 55.89715 -3.52773 2034 ft 123 kts 62°
2026-04-21 12:26 55.90162 -3.51463 1859 ft 123 kts 61°
2026-04-21 12:26 55.90605 -3.50169 1679 ft 121 kts 62°
2026-04-21 12:27 55.91046 -3.48867 1478 ft 123 kts 62°
2026-04-21 12:27 55.91487 -3.47573 1307 ft 121 kts 63°
2026-04-21 12:27 55.91928 -3.46280 1102 ft 121 kts 62°
2026-04-21 12:27 55.92375 -3.44972 926 ft 122 kts 62°
2026-04-21 12:28 55.92803 -3.43699 778 ft 121 kts 61°
2026-04-21 12:28 55.93247 -3.42402 635 ft 121 kts 60°
2026-04-21 12:28 55.93688 -3.41114 462 ft 121 kts 60°
2026-04-21 12:28 55.94127 -3.39816 284 ft 121 kts 59°
2026-04-21 12:29 55.94569 -3.38518 142 ft 122 kts 59°
2026-04-21 12:29 55.94957 -3.37376 107 ft 90 kts 58°
2026-04-21 12:29 55.95188 -3.36690 107 ft 40 kts 58°
2026-04-21 12:29 55.95251 -3.36507 103 ft 17 kts 62°
2026-04-21 12:30 55.95203 -3.36361 102 ft 11 kts 150°
2026-04-21 12:30 55.95180 -3.36336 103 ft 0 kts 148°
2026-04-21 12:30 55.95171 -3.36325 103 ft 4 kts 148°
2026-04-21 12:30 55.95126 -3.36324 105 ft 10 kts 208°
2026-04-21 12:31 55.95062 -3.36391 107 ft 14 kts 171°
2026-04-21 12:31 55.95002 -3.36415 107 ft 7 kts 187°
2026-04-21 12:31 55.94950 -3.36367 107 ft 8 kts 148°
2026-04-21 12:31 55.94943 -3.36359 107 ft 0 kts 148°